Regional Weather Roundup
Issued by NWS

Home | Current Version | Previous Version | Graphics & Text | Print | Product List | Glossary On
Versions: 1 2 3 4 5 6 7 8 9 10 11 12 13 14 15 16 17 18 19 20 21 22 23 24 25 26 27 28 29 30 31 32 33 34 35 36 37 38 39 40 41 42 43 44 45 46 47 48 49 50
323
ASUS44 KLIX 261705
RWRLA
LOUISIANA WEATHER ROUNDUP
NATIONAL WEATHER SERVICE NEW ORLEANS LA
1200 PM CDT SAT JUL 26 2014

NOTE: "FAIR" INDICATES FEW OR NO CLOUDS BELOW 12,000 FEET WITH NO
      SIGNIFICANT WEATHER AND/OR OBSTRUCTIONS TO VISIBILITY.
      SKY/WX - SKY CONDITION AND SIGNIFICANT WEATHER.
      TMP - AIR TEMPERATURE.    DP   - DEWPOINT TEMPERATURE.
      RH  - RELATIVE HUMIDITY.  PRES - PRESSURE.
      HX  - HEAT INDEX.         WCI  - WIND CHILL INDEX.

*  THESE STATIONS ARE NOT NWS OR FAA STATIONS AND ARE NOT UNDER
   NWS QUALITY CONTROL.

LAZ040-048-061>063-065-066-069-261800-
SOUTHEAST LOUISIANA

CITY           SKY/WX    TMP DP  RH WIND       PRES   REMARKS
N.O. AUDUBON     N/A     93  76  57 MISG        N/A  HX 104
N.O. INTL ARPT PTSUNNY   88  75  65 VRB3      30.09F HX  97
N.O. LAKEFRONT SUNNY     87  76  69 NW7       30.10F HX  97
N.O. DOWNTOWN* PTSUNNY   84  73  70 N5        30.09F
SLIDELL        MOSUNNY   89  73  59 CALM      30.08S HX  97
BATON ROUGE    PTSUNNY   89  75  63 W8        30.08F HX  99
BOOTHVILLE     SUNNY     86  73  65 W12       30.11S
BELLE CHASSE   PTSUNNY   89  73  59 VRB6      30.08F HX  97
BOGALUSA*      FAIR      89  75  62 CALM      30.10S HX  99
GALLIANO*      NOT AVBL
NEW ROADS*     FAIR      88  74  62 SW5       30.08F HX  96
GONZALES*      NOT AVBL
HAMMOND*       MOSUNNY   90  70  51 W7        30.10S HX  95
HOUMA*         PTSUNNY   91  72  52 SW3       30.09F HX  98
PORT FOURCHON* SUNNY     86  77  74 W5        30.12F HX  97

$$

LAZ041-044-053-054-261800-
SOUTHWEST LOUISIANA

CITY           SKY/WX    TMP DP  RH WIND       PRES   REMARKS
LAKE CHARLES   MOSUNNY   90  74  59 VRB5      30.07S HX  99
LAFAYETTE      MOSUNNY   90  73  57 CALM      30.08F HX  98
PATTERSON      MOSUNNY   91  75  59 SW5       30.13F HX 102
SALT POINT       N/A     91  77  63 VRB3      30.09F HX 104
NEW IBERIA     PTSUNNY   89  77  67 S6        30.09F HX 101
CHENAULT AIRPK MOSUNNY   90  72  55 W3        30.08F HX  96

$$

LAZ027-028-261800-
CENTRAL LOUISIANA

CITY           SKY/WX    TMP DP  RH WIND       PRES   REMARKS
FORT POLK      MOSUNNY   87  71  58 CALM      30.08S
ALEXANDRIA INT MOSUNNY   89  74  60 S5        30.06R HX  98
ALEXANDRIA     SUNNY     91  74  57 VRB6      30.07S HX 100

$$

LAZ001-002-261800-
NORTHWEST LOUISIANA

CITY           SKY/WX    TMP DP  RH WIND       PRES   REMARKS
SHREVEPORT     MOSUNNY   92  73  53 S9        30.04F HX 100
BARKSDALE AFB  SUNNY     89  72  55 SW8       30.04F HX  96
DTN SHREVEPORT SUNNY     89  70  53 SW6       30.04F

$$

LAZ014-016-261800-
NORTHEAST LOUISIANA

CITY           SKY/WX    TMP DP  RH WIND       PRES   REMARKS
MONROE         MOSUNNY   91  75  59 SW7       30.06S HX 101
TALLULAH       MOSUNNY   91  76  61 VRB5      30.06S HX 103

$$




USA.gov is the U.S. government's official web portal to all federal, state and local government web resources and services.